St Paul Downtown Holman Field St Paul US
ICAO: KSTP
IATA: STP
Category: Medium
Scheduled Services: No

Elevation: 705 ft
TransAlt. 18000 ft.

Airport Communications:
MINNEAPOLIS APP/DEP:121.2
ATIS:118.35
CTAF:119.1
GND/CLNC DEL:121.675
ARNG OPS:41.4
TWR:119.1
UNICOM:122.95

KSTP Zoom In..

If you have problems with the map follow the link
https://www.worldairports.se/pages/airport.php?
ICAO=KSTP

Runways:

(A) RW 09 length 3642 ft width 100 ft
---- / hdg 88

(B) RW 13 length 4004 ft width 150 ft
---- / hdg 125

(C) RW 14 length 6491 ft width 150 ft
ILS 111.50 / hdg 143

(D) RW 27 length 3642 ft width 100 ft
---- / hdg 268

(E) RW 31 length 4004 ft width 150 ft
---- / hdg 305

(F) RW 32 length 6491 ft width 150 ft
ILS 111.50 / hdg 323

Location; KSTP
Day. 21 / Time. 05.53 Zulu
* Altimeter: 30.60
* Temperature: -16° c. -3.2°f.
* Wind from: 000° Speed 00 kn.
Dewpoint: -19° c.
Visibility: 10 Statute Miles.
Clouds: Clear (automated report).

KSTP 210553Z AUTO 00000KT 10SM CLR M16/M19 A3060 RMK AO2 SLP378 T11611189 11094 21161 410721172 58009


Wind - Calm.

 
 
jpsmedia worldairports.se 2020   terms of use